CW2989 Weather Reports


time (UTC)temp
F
wind
direction
speed
knots
gust
knots
rain 1hr
in
rain 24hr
in
rain mn
in
humidity
%
barometer
mb
20240614130654 77 244 0.0 1.7 0.00 0.00 0.00 92 998.0
20240614124626 76 244 0.0 0.9 0.00 0.00 0.00 93 997.8
20240614122534 75 243 0.0 1.7 0.00 0.00 0.00 94 998.0
20240614121550 75 242 0.0 0.0 0.00 0.00 0.00 94 998.0
20240614120531 74 242 0.0 0.0 0.00 0.00 0.00 94 998.0
20240614115529 74 242 0.0 0.0 0.00 0.00 0.00 94 998.0
20240614114534 74 243 0.0 0.0 0.00 0.00 0.00 94 998.0
20240614113524 74 243 0.0 0.0 0.00 0.00 0.00 94 997.7
20240614112509 74 243 0.0 0.0 0.00 0.00 0.00 93 997.6
20240614111453 74 243 0.0 0.0 0.00 0.00 0.00 93 997.6
20240614105327 74 243 0.0 0.0 0.00 0.00 0.00 92 997.4
20240614104329 74 243 0.0 0.0 0.00 0.00 0.00 92 997.0
20240614103343 74 243 0.0 0.0 0.00 0.00 0.00 92 997.0
20240614102333 75 243 0.0 0.0 0.00 0.00 0.00 92 996.9
20240614101348 75 243 0.0 1.7 0.00 0.00 0.00 92 996.5
20240614100326 75 242 0.0 0.9 0.00 0.00 0.00 92 996.5
20240614095332 75 242 0.0 0.9 0.00 0.00 0.00 92 996.5
20240614094319 75 242 0.0 0.0 0.00 0.00 0.00 91 996.4
20240614092146 75 242 0.0 0.9 0.00 0.00 0.00 91 996.4
20240614091123 75 242 0.0 0.0 0.00 0.00 0.00 89 996.4
20240614090109 75 242 0.0 0.0 0.00 0.00 0.00 89 996.4
20240614085046 75 242 0.0 0.0 0.00 0.00 0.00 89 996.2
20240614084109 76 242 0.0 0.0 0.00 0.00 0.00 88 996.4
20240614083103 76 242 0.0 0.0 0.00 0.00 0.00 87 996.4
20240614081022 77 242 0.0 0.0 0.00 0.00 0.00 87 996.4
20240614075957 77 242 0.0 1.7 0.00 0.00 0.00 87 996.4
20240614074941 77 240 0.0 1.7 0.00 0.00 0.00 86 996.4
20240614073921 77 240 0.0 3.5 0.00 0.00 0.00 86 996.4
20240614072929 78 233 0.0 3.5 0.00 0.00 0.00 86 996.4
20240614070759 78 229 0.0 0.0 0.00 0.00 0.00 85 996.4
20240614065808 78 229 0.0 1.7 0.00 0.00 0.00 85 996.4
20240614064735 78 223 0.0 1.7 0.00 0.00 0.00 85 996.4
20240614063718 78 220 0.0 0.9 0.00 0.00 0.00 85 996.4
20240614062718 78 220 0.0 0.0 0.00 0.00 0.00 84 996.6
20240614061724 78 220 0.0 0.0 0.00 0.00 0.00 84 996.6
20240614060709 78 220 0.0 0.0 0.00 0.00 0.00 84 996.6
20240614055645 78 220 0.0 0.0 0.00 0.00 0.00 84 996.7
20240614054658 79 220 0.0 0.0 0.00 0.00 0.00 84 996.7
20240614053708 79 220 0.0 0.0 0.00 0.00 0.00 84 996.9
20240614052658 79 220 0.0 0.0 0.00 0.00 0.00 84 996.9
20240614051652 79 220 0.0 0.9 0.00 0.00 0.00 84 996.9
20240614045457 79 219 0.0 0.0 0.00 0.00 0.00 83 996.8
20240614044454 79 219 0.0 0.0 0.00 0.00 0.00 82 996.8
20240614043439 80 219 0.0 0.0 0.00 0.00 0.00 82 996.6
20240614042503 80 219 0.0 0.0 0.00 0.00 0.00 82 996.7
20240614041526 80 219 0.0 0.0 0.00 0.00 0.00 81 996.7
20240614035436 80 219 0.0 0.0 0.00 0.00 0.00 80 996.5
20240614034459 81 219 0.0 0.0 0.00 0.00 0.00 80 996.5
20240614033437 81 219 0.0 0.0 0.00 0.00 0.00 79 996.4
20240614032427 81 219 0.0 0.0 0.00 0.00 0.00 78 996.2
20240614025139 82 219 0.0 0.0 0.00 0.00 0.00 76 995.8
20240614024117 82 219 0.0 0.0 0.00 0.00 0.00 76 995.5
20240614023139 82 219 0.0 0.0 0.00 0.00 0.00 75 995.5
20240614022152 83 219 0.0 0.0 0.00 0.00 0.00 74 995.4
20240614021142 83 219 0.0 0.0 0.00 0.00 0.00 73 995.3
20240614020148 83 219 0.0 0.9 0.00 0.00 0.00 72 995.3
20240614015142 84 219 0.0 0.0 0.00 0.00 0.00 72 995.3
20240614013015 85 216 0.0 3.5 0.00 0.00 0.00 70 995.3
20240614012029 86 200 0.0 1.7 0.00 0.00 0.00 69 995.3
20240614010955 86 176 0.0 0.9 0.00 0.00 0.00 69 995.3
20240614005932 87 214 0.0 0.9 0.00 0.00 0.00 68 995.3
20240614002707 88 181 0.9 3.5 0.00 0.00 0.00 66 995.2
20240614001709 89 279 0.9 3.5 0.00 0.00 0.00 66 995.2
20240614000724 90 147 0.0 3.5 0.00 0.00 0.00 64 995.2
20240613235746 90 250 0.0 3.5 0.00 0.00 0.00 63 995.2
20240613234749 90 148 0.0 0.0 0.00 0.00 0.00 63 995.2
20240613233723 91 264 0.0 3.5 0.00 0.00 0.00 63 995.2
20240613232727 91 250 0.9 3.5 0.00 0.00 0.00 62 995.3
20240613231658 91 202 0.9 2.6 0.00 0.00 0.00 61 995.3
20240613230635 91 153 0.9 3.5 0.00 0.00 0.00 62 995.3
20240613225610 92 182 0.9 4.3 0.00 0.00 0.00 62 995.3
20240613224625 92 155 0.9 4.3 0.00 0.00 0.00 61 995.3
20240613222505 91 267 0.9 6.1 0.00 0.00 0.00 61 995.4
20240613221431 92 189 0.9 6.1 0.00 0.00 0.00 60 995.4
20240613220359 92 281 0.9 5.2 0.00 0.00 0.00 61 995.6
20240613215404 92 257 0.9 5.2 0.00 0.00 0.00 63 995.7
20240613214416 92 263 0.9 5.2 0.00 0.00 0.00 61 995.7
20240613213400 91 146 1.7 5.2 0.00 0.00 0.00 61 995.8
20240613212352 91 145 0.9 3.5 0.00 0.00 0.00 64 996.0
20240613211339 92 189 0.0 4.3 0.00 0.00 0.00 59 996.1
20240613210341 92 229 0.9 4.3 0.00 0.00 0.00 62 996.1
20240613205327 91 206 0.0 2.6 0.00 0.00 0.00 62 996.3
20240613203156 91 145 0.9 4.3 0.00 0.00 0.00 60 996.5
20240613195857 91 273 0.9 4.3 0.00 0.00 0.00 62 996.8
20240613194854 91 112 0.0 5.2 0.00 0.00 0.00 64 996.8
20240613193908 91 186 0.9 5.2 0.00 0.00 0.00 64 997.0
20240613192907 90 148 0.0 1.7 0.00 0.00 0.00 66 997.0
20240613191842 90 252 0.0 1.7 0.00 0.00 0.00 61 997.0
20240613190814 90 261 0.0 2.6 0.00 0.00 0.00 66 997.1
20240613185827 90 254 0.9 5.2 0.00 0.00 0.00 64 997.4
20240613183734 90 234 0.0 4.3 0.00 0.00 0.00 64 997.5
20240613182710 89 256 0.0 7.8 0.00 0.00 0.00 65 997.6
20240613181640 89 260 1.7 7.8 0.00 0.00 0.00 70 997.6
20240613180655 88 249 0.9 4.3 0.00 0.00 0.00 67 997.9
20240613175702 88 276 1.7 7.0 0.00 0.00 0.00 67 998.0
20240613174727 88 250 1.7 7.0 0.00 0.00 0.00 68 998.0
20240613173732 88 261 0.9 4.3 0.00 0.00 0.00 68 998.1
20240613172703 88 255 0.9 4.3 0.00 0.00 0.00 69 998.1
20240613171700 87 146 0.9 4.3 0.00 0.00 0.00 72 998.1
20240613170714 86 254 0.9 0.9 0.00 0.00 0.00 71 998.1
20240613165711 86 264 0.9 3.5 0.00 0.00 0.00 71 998.1
20240613164647 85 257 0.9 3.5 0.00 0.00 0.00 75 998.1
20240613162530 83 261 0.0 0.0 0.00 0.00 0.00 79 998.1
20240613160347 84 263 0.9 4.3 0.00 0.00 0.00 77 998.1
20240613155346 84 234 0.9 5.2 0.00 0.00 0.00 77 998.1
20240613152125 82 264 0.9 4.3 0.00 0.00 0.00 84 998.2
20240613151054 82 261 0.9 4.3 0.00 0.00 0.00 83 998.2
20240613142727 79 211 0.0 1.7 0.00 0.00 0.00 90 998.2
20240613141702 78 211 0.0 2.6 0.00 0.00 0.00 92 998.2
20240613140656 77 203 0.0 2.6 0.00 0.00 0.00 94 998.2
20240613135624 76 199 0.0 0.0 0.00 0.00 0.00 96 997.9
20240613133535 75 199 0.0 0.9 0.00 0.00 0.00 97 997.7
20240613132549 75 199 0.0 0.0 0.00 0.00 0.00 97 997.7
20240613131545 74 199 0.0 0.0 0.00 0.00 0.00 96 997.7